RNDO2: Randlett 3N(Deep Red Rn)

Data processed at Fri May 24 2019 23:50


All information presented herein is the property of the government of the United States of America and may be revised or deleted at any time without prior notice.
Dissemination of this information without the expressed written consent of the Public Affairs Office, Tulsa District U.S. Army Corps of Engineers is strictly prohibited.
These data are gathered electronically and, as presented, have not undergone any form of quality control. These data are not guaranteed to be valid or correct.
Go to home page.
Go to station list.
Go to home page.

Upstream stations:

Downstream station:
Previous Day
Next Day
Current Day
    
SHEF ID:       RNDO2     Deep Red Creek near Randlett, OK
STATION TYPE:  
Regulating: Stage =    20.00, Flow =     2901

                STAGE  RIV-FLOW  BAT-LOAD
                   ft       cfs      volt
              Ccp-Rev   Ccp-Rev   Ccp-Rev
(US/Central)
05/24 00:00     22.44      4914     12.89
05/24 01:00     22.19      4557     12.89
05/24 02:00     21.91      4214     12.81
05/24 03:00     21.56      3890     12.81
05/24 04:00     21.13      3519     12.81
05/24 05:00     20.62      3221     12.81
05/24 06:00     20.02      2910     12.73
05/24 07:00     19.37      2621     12.73
05/24 08:00     18.66      2376     13.13
05/24 09:00     17.93      2144     13.37
05/24 10:00     17.13      1923     13.29
05/24 11:00     16.27      1721     13.21
05/24 12:00     15.33      1529     13.21
05/24 13:00     14.41      1354     13.13
05/24 14:00     13.50      1200     13.21
05/24 15:00     12.63      1081     13.13
05/24 16:00     11.87       980     13.13
05/24 17:00     11.25       900     13.13
05/24 18:00     10.73       834     13.05
05/24 19:00     10.29       779     13.05
05/24 20:00      9.97       740     12.97
05/24 21:00      9.69       707     12.89
05/24 22:00      9.50       685     12.89
05/24 23:00      9.39       673     12.89